CW9009 Weather Reports


time (UTC)temp
C
wind
direction
speed
KPH
gust
KPH
rain 1hr
cm
rain 24hr
cm
rain mn
cm
humidity
%
barometer
mb
20260901154418 23 68 3.2 4.8 0.00 0.00 0.00 59 1010.6
20260901153438 22 76 3.2 4.8 0.00 0.00 0.00 60 1010.6
20260901152438 21 122 4.8 4.8 0.00 0.00 0.00 63 1010.4
20260901151438 20 66 3.2 3.2 0.00 0.00 0.00 67 1010.4
20260901150419 19 57 1.6 4.8 0.00 0.00 0.00 69 1010.4
20260901145419 18 182 0.0 3.2 0.00 0.00 0.00 69 1010.5
20260901144419 18 179 1.6 3.2 0.00 0.00 0.00 69 1010.5
20260901143419 18 14 1.6 3.2 0.00 0.00 0.00 68 1010.4
20260901142420 17 343 1.6 3.2 0.00 0.00 0.00 68 1010.3
20260901141419 17 80 1.6 1.6 0.00 0.00 0.00 68 1010.1
20260901140420 17 0 0.0 0.0 0.00 0.00 0.00 69 1010.1
20260901135420 17 51 0.0 1.6 0.00 0.00 0.00 68 1010.1
20260901134420 17 63 1.6 1.6 0.00 0.00 0.00 67 1010.1
20260901133420 17 0.0 0.0 0.00 0.00 0.00 65 1010.1
20260901132420 17 80 1.6 3.2 0.00 0.00 0.00 64 1010.0
20260901131420 17 0.0 0.0 0.00 0.00 0.00 64 1010.0
20260901130421 17 280 0.0 1.6 0.00 0.00 0.00 67 1009.9
20260901125421 17 0.0 0.0 0.00 0.00 0.00 68 1009.9
20260901124421 17 0.0 0.0 0.00 0.00 0.00 65 1009.9
20260901123421 17 0.0 0.0 0.00 0.00 0.00 64 1009.8
20260901122421 17 107 1.6 3.2 0.00 0.00 0.00 65 1009.9
20260901121421 18 0.0 0.0 0.00 0.00 0.00 64 1009.7
20260901120421 17 0.0 0.0 0.00 0.00 0.00 63 1009.8
20260901115422 17 289 1.6 3.2 0.00 0.00 0.00 64 1009.8
20260901114422 18 0.0 0.0 0.00 0.00 0.00 64 1009.6
20260901113422 18 0 0.0 0.0 0.00 0.00 0.00 62 1009.4
20260901112422 18 0.0 0.0 0.00 0.00 0.00 64 1009.4
20260901111443 18 0.0 0.0 0.00 0.00 0.00 63 1009.3
20260901110423 18 96 1.6 3.2 0.00 0.00 0.00 55 1009.2
20260901105423 18 190 0.0 0.0 0.00 0.00 0.00 55 1009.1
20260901104443 18 64 0.0 3.2 0.00 0.00 0.00 54 1009.1
20260901103423 18 286 0.0 1.6 0.00 0.00 0.00 53 1008.8
20260901102423 18 0 0.0 0.0 0.00 0.00 0.00 52 1008.6
20260901101444 18 0.0 0.0 0.00 0.00 0.00 50 1008.7
20260901100424 19 0.0 0.0 0.00 0.00 0.00 49 1008.6
20260901095424 19 179 0.0 0.0 0.00 0.00 0.00 47 1008.6
20260901094425 19 173 1.6 3.2 0.00 0.00 0.00 47 1008.6
20260901093444 18 123 3.2 3.2 0.00 0.00 0.00 47 1008.8
20260901092424 18 110 1.6 3.2 0.00 0.00 0.00 47 1008.8
20260901091424 18 88 1.6 3.2 0.00 0.00 0.00 47 1009.1
20260901090425 18 0 0.0 0.0 0.00 0.00 0.00 48 1009.2
20260901085425 18 0.0 0.0 0.00 0.00 0.00 48 1009.2
20260901084425 18 0 0.0 0.0 0.00 0.00 0.00 49 1009.3
20260901083425 18 116 1.6 3.2 0.00 0.00 0.00 50 1009.4
20260901082425 18 0 0.0 0.0 0.00 0.00 0.00 52 1009.4
20260901081445 18 109 3.2 3.2 0.00 0.00 0.00 50 1009.6
20260901080426 18 0.0 0.0 0.00 0.00 0.00 50 1009.7
20260901075446 18 0.0 0.0 0.00 0.00 0.00 49 1009.6
20260901074426 18 74 0.0 1.6 0.00 0.00 0.00 50 1009.7
20260901073426 18 0.0 0.0 0.00 0.00 0.00 52 1009.7
20260901072426 18 0.0 0.0 0.00 0.00 0.00 48 1009.7
20260901071447 18 0.0 0.0 0.00 0.00 0.00 52 1009.7
20260901070427 17 0.0 0.0 0.00 0.00 0.00 54 1009.7
20260901065427 18 0.0 0.0 0.00 0.00 0.00 57 1009.8
20260901064427 18 0.0 0.0 0.00 0.00 0.00 55 1009.7
20260901063427 18 0.0 0.0 0.00 0.00 0.00 55 1009.7
20260901062427 18 0.0 0.0 0.00 0.00 0.00 60 1009.8
20260901061448 18 105 1.6 3.2 0.00 0.00 0.00 53 1009.9
20260901060428 18 0.0 0.0 0.00 0.00 0.00 53 1009.7
20260901055428 19 0.0 0.0 0.00 0.00 0.00 54 1009.7
20260901054428 20 0 0.0 0.0 0.00 0.00 0.00 59 1010.0
20260901053428 20 0.0 0.0 0.00 0.00 0.00 45 1010.1
20260901052429 20 95 3.2 3.2 0.00 0.00 0.00 45 1010.3
20260901051449 20 84 3.2 4.8 0.00 0.00 0.00 47 1010.3
20260901050429 20 86 3.2 3.2 0.00 0.00 0.00 48 1010.4
20260901045429 20 69 1.6 1.6 0.00 0.00 0.00 50 1010.3
20260901044429 21 0.0 0.0 0.00 0.00 0.00 52 1010.3
20260901043430 21 119 1.6 1.6 0.00 0.00 0.00 52 1010.1
20260901042430 21 109 0.0 1.6 0.00 0.00 0.00 50 1010.0
20260901041450 22 0.0 0.0 0.00 0.00 0.00 49 1009.9
20260901040430 22 0.0 0.0 0.00 0.00 0.00 49 1009.8
20260901035430 22 0.0 0.0 0.00 0.00 0.00 50 1009.8
20260901034430 23 0.0 0.0 0.00 0.00 0.00 50 1009.9
20260901033450 23 0.0 0.0 0.00 0.00 0.00 47 1009.7
20260901032430 24 0.0 0.0 0.00 0.00 0.00 43 1009.6
20260901031451 25 0.0 0.0 0.00 0.00 0.00 44 1009.7
20260901030416 25 0.0 0.0 0.00 0.00 0.00 42 1009.6
20260901025416 26 0.0 0.0 0.00 0.00 0.00 40 1009.6
20260901024417 26 0.0 0.0 0.00 0.00 0.00 40 1009.4
20260901023417 26 0.0 0.0 0.00 0.00 0.00 39 1009.4
20260901022416 27 0.0 0.0 0.00 0.00 0.00 38 1009.4
20260901021417 28 0.0 0.0 0.00 0.00 0.00 37 1009.5
20260901020417 28 0.0 0.0 0.00 0.00 0.00 35 1009.6
20260901015437 29 0.0 0.0 0.00 0.00 0.00 34 1009.6
20260901014457 30 0.0 0.0 0.00 0.00 0.00 34 1009.7
20260901013453 30 0.0 0.0 0.00 0.00 0.00 33 1009.8
20260901012433 30 0.0 0.0 0.00 0.00 0.00 34 1009.8
20260901011418 31 0.0 0.0 0.00 0.00 0.00 33 1009.8
20260901010418 31 0.0 0.0 0.00 0.00 0.00 33 1009.8
20260901005418 31 0.0 0.0 0.00 0.00 0.00 33 1009.9
20260901004439 31 0.0 0.0 0.00 0.00 0.00 32 1009.9
20260901003419 31 0.0 0.0 0.00 0.00 0.00 32 1009.9
20260901002419 31 0.0 0.0 0.00 0.00 0.00 30 1010.1
20260901001419 31 0.0 0.0 0.00 0.00 0.00 30 1010.4
20260901000420 31 297 1.6 3.2 0.00 0.00 0.00 30 1010.5
20260831235419 31 285 0.0 1.6 0.00 0.00 0.00 29 1010.6
20260831234420 31 270 0.0 1.6 0.00 0.00 0.00 29 1010.7
20260831233420 31 0.0 0.0 0.00 0.00 0.00 29 1010.8
20260831232420 31 175 0.0 1.6 0.00 0.00 0.00 29 1010.8
20260831231420 31 0.0 0.0 0.00 0.00 0.00 29 1010.9
20260831230420 31 257 0.0 1.6 0.00 0.00 0.00 29 1011.0
20260831225420 31 0.0 0.0 0.00 0.00 0.00 30 1011.1
20260831224421 31 0.0 0.0 0.00 0.00 0.00 29 1011.3
20260831223420 30 0.0 0.0 0.00 0.00 0.00 29 1011.4
20260831222421 31 0.0 0.0 0.00 0.00 0.00 29 1011.7
20260831221421 31 0.0 0.0 0.00 0.00 0.00 28 1011.9
20260831220421 30 270 0.0 1.6 0.00 0.00 0.00 29 1012.1
20260831215421 30 74 1.6 3.2 0.00 0.00 0.00 30 1012.4
20260831214443 30 0.0 0.0 0.00 0.00 0.00 30 1012.5
20260831213422 29 0.0 0.0 0.00 0.00 0.00 32 1012.6
20260831212422 29 0 0.0 0.0 0.00 0.00 0.00 32 1012.8
20260831211423 28 0.0 0.0 0.00 0.00 0.00 30 1013.0
20260831210422 28 264 0.0 1.6 0.00 0.00 0.00 33 1013.2
20260831205423 28 282 1.6 3.2 0.00 0.00 0.00 34 1013.3
20260831204422 27 271 1.6 3.2 0.00 0.00 0.00 33 1013.5
20260831203443 27 3 1.6 3.2 0.00 0.00 0.00 35 1013.7
20260831202423 27 104 3.2 3.2 0.00 0.00 0.00 35 1013.8
20260831201423 26 305 1.6 4.8 0.00 0.00 0.00 34 1013.9
20260831200423 26 0.0 0.0 0.00 0.00 0.00 34 1014.1
20260831195444 26 273 0.0 1.6 0.00 0.00 0.00 38 1014.4
20260831194423 25 170 3.2 4.8 0.00 0.00 0.00 38 1014.5
20260831193424 25 0.0 0.0 0.00 0.00 0.00 39 1014.7
20260831192424 25 98 1.6 3.2 0.00 0.00 0.00 37 1014.7
20260831191424 24 262 6.4 9.7 0.00 0.00 0.00 38 1014.8
20260831190504 23 81 0.0 1.6 0.00 0.00 0.00 39 1015.0
20260831185424 23 270 1.6 4.8 0.00 0.00 0.00 42 1015.2
20260831184445 23 0.0 0.0 0.00 0.00 0.00 42 1015.3
20260831183425 22 127 1.6 3.2 0.00 0.00 0.00 42 1015.6
20260831182425 22 0.0 0.0 0.00 0.00 0.00 44 1015.6
20260831181425 21 275 3.2 4.8 0.00 0.00 0.00 42 1015.9
20260831180425 21 315 1.6 6.4 0.00 0.00 0.00 44 1015.9
20260831175426 20 0.0 0.0 0.00 0.00 0.00 45 1016.1
20260831174426 20 124 1.6 3.2 0.00 0.00 0.00 45 1016.2
20260831173426 20 0.0 0.0 0.00 0.00 0.00 47 1016.2
20260831172426 19 0.0 0.0 0.00 0.00 0.00 47 1016.2
20260831171427 19 184 0.0 3.2 0.00 0.00 0.00 45 1016.2
20260831170427 18 0.0 0.0 0.00 0.00 0.00 45 1016.3
20260831165446 17 0 0.0 0.0 0.00 0.00 0.00 45 1016.3
20260831164427 17 87 0.0 3.2 0.00 0.00 0.00 45 1016.4
20260831163447 17 0.0 0.0 0.00 0.00 0.00 48 1016.5
20260831162427 16 353 0.0 1.6 0.00 0.00 0.00 49 1016.6
20260831161427 15 0 0.0 0.0 0.00 0.00 0.00 50 1016.7
20260831160427 15 82 1.6 1.6 0.00 0.00 0.00 52 1016.9
20260831155428 14 0.0 0.0 0.00 0.00 0.00 53 1017.0